Weather History for St. George, UT

Change the Weather History Date:

Wednesday, May 7, 2014

  Actual Average Record
Temperature  
Mean Temperature 58 °F -  
Max Temperature 66 °F 82 °F 98 °F (1934)
Min Temperature 51 °F 51 °F 33 °F (1938)
Degree Days  
Heating Degree Days 6    
Growing Degree Days 8 (Base 50)    
Moisture  
Dew Point 31 °F    
Average Humidity 37    
Maximum Humidity 58    
Minimum Humidity 23    
Precipitation  
Precipitation 0.04 in - - ()
Sea Level Pressure  
Sea Level Pressure 29.77 in    
Wind  
Wind Speed 9 mph (WSW)    
Max Wind Speed 28 mph    
Max Gust Speed 33 mph    
Visibility 10 miles    
Events      
Averages and records for this station are not official NWS values.
T = Trace of Precipitation, MM = Missing Value Source: NWS Daily Summary

Daily Weather History Graph

Daily Weather History Graph

Search for Another Location

Airport:

Trip Planner

Search our weather history database for the weather conditions in past years. The results will help you decide how hot, cold, wet, or windy it might be!

Date:

Astronomy

May. 07, 2014 Rise Set
Actual Time 6:33 AM MDT 8:28 PM MDT
Civil Twilight 6:05 AM MDT 8:57 PM MDT
Nautical Twilight 5:30 AM MDT 9:32 PM MDT
Astronomical Twilight 4:53 AM MDT 10:09 PM MDT
Moon 1:47 PM MDT (5/7) 2:24 AM MDT (5/7)
Length of Visible Light 14h 52m
Length of Day
13h 55m
First Quarter, 56% of the Moon is Illuminated
May 7
First Quarter
May 14
Full
May 21
Last Quarter
May 28
New
Jun 5
First Quarter

Hourly Weather History & Observations

Time (MDT) Temp. Dew Point Humidity Pressure Visibility Wind Dir Wind Speed Gust Speed Precip Events Conditions
12:15 AM 57.2 °F 26.6 °F 31% 29.68 in 10.0 mi SSW 4.6 mph - N/A   Clear
12:35 AM 55.4 °F 26.6 °F 33% 29.69 in 10.0 mi SSW 6.9 mph - N/A   Clear
12:55 AM 55.4 °F 26.6 °F 33% 29.69 in 10.0 mi SSW 6.9 mph - N/A   Clear
1:15 AM 51.8 °F 26.6 °F 38% 29.69 in 10.0 mi SSE 9.2 mph - N/A   Clear
1:35 AM 53.6 °F 26.6 °F 35% 29.69 in 10.0 mi South 5.8 mph - N/A   Clear
1:55 AM 53.6 °F 26.6 °F 35% 29.69 in 10.0 mi South 6.9 mph - N/A   Clear
2:15 AM 53.6 °F 26.6 °F 35% 29.69 in 10.0 mi South 6.9 mph - N/A   Clear
2:35 AM 53.6 °F 26.6 °F 35% 29.69 in 10.0 mi South 8.1 mph - N/A   Clear
2:55 AM 53.6 °F 28.4 °F 38% 29.69 in 10.0 mi South 4.6 mph - N/A   Clear
3:15 AM 53.6 °F 28.4 °F 38% 29.69 in 10.0 mi SSW 5.8 mph - N/A   Mostly Cloudy
3:35 AM 53.6 °F 28.4 °F 38% 29.69 in 10.0 mi SSW 5.8 mph - N/A   Overcast
3:55 AM 55.4 °F 28.4 °F 36% 29.69 in 10.0 mi South 13.8 mph - N/A   Partly Cloudy
4:15 AM 53.6 °F 28.4 °F 38% 29.69 in 10.0 mi SSW 12.7 mph - N/A   Partly Cloudy
4:35 AM 53.6 °F 28.4 °F 38% 29.70 in 10.0 mi SSW 8.1 mph - N/A   Clear
4:55 AM 53.6 °F 28.4 °F 38% 29.70 in 10.0 mi SW 10.4 mph - N/A   Clear
5:15 AM 53.6 °F 28.4 °F 38% 29.70 in 10.0 mi SW 8.1 mph - N/A   Partly Cloudy
5:35 AM 53.6 °F 28.4 °F 38% 29.71 in 10.0 mi SSW 9.2 mph - N/A   Mostly Cloudy
5:55 AM 53.6 °F 28.4 °F 38% 29.71 in 10.0 mi SW 4.6 mph - N/A   Mostly Cloudy
6:15 AM 51.8 °F 28.4 °F 41% 29.72 in 10.0 mi SE 4.6 mph - N/A   Overcast
6:35 AM 53.6 °F 30.2 °F 41% 29.72 in 10.0 mi SE 5.8 mph - N/A   Overcast
6:55 AM 53.6 °F 32.0 °F 44% 29.73 in 10.0 mi Calm Calm - N/A   Overcast
7:15 AM 53.6 °F 30.2 °F 41% 29.74 in 10.0 mi ESE 4.6 mph - N/A   Overcast
7:35 AM 53.6 °F 30.2 °F 41% 29.74 in 10.0 mi ESE 4.6 mph - N/A   Overcast
7:55 AM 53.6 °F 30.2 °F 41% 29.74 in 10.0 mi ESE 5.8 mph - N/A   Mostly Cloudy
8:15 AM 53.6 °F 30.2 °F 41% 29.75 in 10.0 mi ESE 6.9 mph - N/A   Mostly Cloudy
8:35 AM 53.6 °F 30.2 °F 41% 29.75 in 10.0 mi SE 4.6 mph - N/A   Overcast
8:55 AM 53.6 °F 30.2 °F 41% 29.75 in 10.0 mi ESE 4.6 mph - N/A   Mostly Cloudy
9:15 AM 55.4 °F 32.0 °F 41% 29.76 in 10.0 mi Calm Calm - N/A   Overcast
9:35 AM 55.4 °F 32.0 °F 41% 29.76 in 10.0 mi Calm Calm - N/A   Overcast
9:55 AM 55.4 °F 33.8 °F 44% 29.77 in 10.0 mi NW 9.2 mph - N/A   Overcast
10:15 AM 55.4 °F 33.8 °F 44% 29.77 in 10.0 mi WNW 8.1 mph - N/A   Overcast
10:35 AM 57.2 °F 33.8 °F 41% 29.78 in 10.0 mi NW 6.9 mph - N/A   Overcast
11:15 AM 57.2 °F 35.6 °F 44% 29.79 in 10.0 mi WNW 11.5 mph 16.1 mph N/A   Overcast
11:35 AM 57.2 °F 35.6 °F 44% 29.80 in 10.0 mi NNW 8.1 mph - N/A   Overcast
11:55 AM 57.2 °F 33.8 °F 41% 29.80 in 10.0 mi SW 9.2 mph - N/A   Mostly Cloudy
12:35 PM 60.8 °F 35.6 °F 39% 29.79 in 10.0 mi South 9.2 mph - N/A   Partly Cloudy
12:55 PM 60.8 °F 33.8 °F 36% 29.79 in 10.0 mi SSW 9.2 mph 16.1 mph N/A   Clear
1:15 PM 62.6 °F 33.8 °F 34% 29.78 in 10.0 mi West 10.4 mph - N/A   Mostly Cloudy
1:35 PM 60.8 °F 35.6 °F 39% 29.78 in 10.0 mi West 19.6 mph 27.6 mph N/A   Overcast
1:55 PM 55.4 °F 41.0 °F 58% 29.79 in 10.0 mi NE 9.2 mph - 0.04 in   Overcast
2:15 PM 59.0 °F 42.8 °F 55% 29.78 in 10.0 mi NE 3.5 mph - N/A   Scattered Clouds
2:35 PM 60.8 °F 39.2 °F 45% 29.78 in 10.0 mi North 4.6 mph - N/A   Scattered Clouds
2:55 PM 60.8 °F 37.4 °F 42% 29.78 in 10.0 mi West 6.9 mph - N/A   Scattered Clouds
3:15 PM 62.6 °F 37.4 °F 39% 29.78 in 10.0 mi West 10.4 mph - N/A   Clear
3:35 PM 66.2 °F 33.8 °F 30% 29.76 in 10.0 mi WSW 27.6 mph 32.2 mph N/A   Scattered Clouds
3:55 PM 66.2 °F 30.2 °F 26% 29.77 in 10.0 mi West 19.6 mph 27.6 mph N/A   Partly Cloudy
4:15 PM 66.2 °F 30.2 °F 26% 29.78 in 10.0 mi WSW 24.2 mph 33.4 mph N/A   Scattered Clouds
4:35 PM 62.6 °F 32.0 °F 32% 29.79 in 10.0 mi West 17.3 mph 32.2 mph N/A   Mostly Cloudy
4:55 PM 64.4 °F 28.4 °F 26% 29.78 in 10.0 mi West 20.7 mph 29.9 mph N/A   Scattered Clouds
5:15 PM 64.4 °F 26.6 °F 24% 29.79 in 10.0 mi WSW 12.7 mph 26.5 mph N/A   Mostly Cloudy
5:35 PM 66.2 °F 26.6 °F 23% 29.79 in 10.0 mi West 15.0 mph 24.2 mph N/A   Scattered Clouds
5:55 PM 66.2 °F 26.6 °F 23% 29.79 in 10.0 mi SW 16.1 mph 23.0 mph N/A   Partly Cloudy
6:15 PM 66.2 °F 26.6 °F 23% 29.79 in 10.0 mi West 13.8 mph 21.9 mph N/A   Partly Cloudy
6:35 PM 66.2 °F 26.6 °F 23% 29.79 in 10.0 mi WSW 15.0 mph 20.7 mph N/A   Partly Cloudy
6:55 PM 66.2 °F 26.6 °F 23% 29.80 in 10.0 mi West 12.7 mph - N/A   Scattered Clouds
7:15 PM 64.4 °F 28.4 °F 26% 29.81 in 10.0 mi NW 19.6 mph - N/A   Scattered Clouds
7:35 PM 64.4 °F 28.4 °F 26% 29.81 in 10.0 mi North 6.9 mph - N/A   Mostly Cloudy
7:55 PM 64.4 °F 28.4 °F 26% 29.82 in 10.0 mi NW 8.1 mph - N/A   Partly Cloudy
8:15 PM 62.6 °F 28.4 °F 27% 29.83 in 10.0 mi NNW 4.6 mph - N/A   Partly Cloudy
8:35 PM 60.8 °F 33.8 °F 36% 29.83 in 10.0 mi NE 11.5 mph - N/A   Partly Cloudy
8:55 PM 60.8 °F 32.0 °F 34% 29.83 in 10.0 mi ENE 8.1 mph - N/A   Scattered Clouds
9:15 PM 59.0 °F 33.8 °F 39% 29.85 in 10.0 mi NE 20.7 mph 26.5 mph N/A   Mostly Cloudy
9:35 PM 57.2 °F 33.8 °F 41% 29.85 in 10.0 mi NE 12.7 mph 23.0 mph N/A   Partly Cloudy
9:55 PM 59.0 °F 33.8 °F 39% 29.87 in 10.0 mi North 8.1 mph - N/A   Partly Cloudy
10:15 PM 57.2 °F 35.6 °F 44% 29.88 in 10.0 mi NNW 13.8 mph 23.0 mph N/A   Scattered Clouds
10:35 PM 57.2 °F 33.8 °F 41% 29.87 in 10.0 mi NNE 11.5 mph - N/A   Clear
10:55 PM 57.2 °F 35.6 °F 44% 29.89 in 10.0 mi NE 16.1 mph - N/A   Partly Cloudy
11:15 PM 55.4 °F 33.8 °F 44% 29.89 in 10.0 mi ENE 18.4 mph 23.0 mph N/A   Clear
11:35 PM 57.2 °F 33.8 °F 41% 29.89 in 10.0 mi NE 15.0 mph 19.6 mph N/A   Partly Cloudy
11:55 PM 55.4 °F 32.0 °F 41% 29.90 in 10.0 mi NE 12.7 mph - N/A   Clear